Find Starlink 36277

NORAD ID: 68305 Int'l Des: 2026-057 Owner: SPXS Country: US Constellation: starlink operational
LEOCIRCULARRETROGRADE

Live-Position

3D-Globus wird geladen...

Über Starlink 36277

Beschreibung wird geladen...

Nächste Überflüge

Passes for default location (London). Set your location on the main map for personalized predictions.

Höhenverlauf

Loading altitude history...

Zweizeiliger Elementsatz

1 68305U 26057M 26125.30651986 .00391789 00000-0 24913-2 0 9994
2 68305 97.2859 250.5032 0000759 130.6059 229.5272 15.75351793 7198
Epoch: 5. Mai 2026 • Age: 16 hours

Aktueller Status

Höhe 362.7 km
Geschwindigkeit 7.69 km/s
Subsatellitenpunkt -52.18°S, 155.81°W
Startdatum 20. März 2026
Alter 0.1 years
Typ internet

Technische Details

Klassifizierung Payload
Masse 575.00 kg
Trockenmasse 530.00 kg
Gesamtmasse 575.00 kg
Länge 0.30 m
Durchmesser 4.10 m
Spannweite 29.00 m
Form Box + pan
Hersteller SPXS
Bus-Typ Starlink V2MO
Phasenstatus In Orbit
Besitzer/Staat SPXS/US

Most Searched